Location: Contre
(49.7477°N, 2.0963°E)
Time: 14:12:36
(UTC+00:00)

Meteor 2-12 Rocket - Pass Details

Date: 11 August 2024
Orbit: 936 x 956 km, 82.5° (Epoch: 14 September)

Event Time Altitude Azimuth Distance (km) Brightness Sun altitude
Rises 00:50:42 0° 348° (NNW) 3,613 8.5 -24.0°
Reaches altitude 10° 00:53:12 10° 346° (NNW) 2,667 7.6 -23.9°
Maximum altitude 00:59:15 69° 265° (W) 1,006 4.4 -23.6°
Enters shadow 01:00:41 52° 204° (SSW) 1,166 4.5 -23.6°
